This demonstration page uses our WeatherBlox Daily Observations layout. Learn more.

Left ArrowRight Arrow

53.62937, 11.41316

Hourly Observations for May 19, 2021

Temp ( °F °C ) Dew Point ( °F °C ) Humidity (%) Winds ( mph kmh ) Pressure ( in mb ) Visibility ( mi km ) Precip ( " mm )
7:20 am 07:20 Mostly Sunny 48 9 46 8 94 94 SW 5 7 29.94 1014 30 48 N/A
7:50 am 07:50 Mostly Sunny 48 9 45 7 87 87 SW 6 9 29.94 1014 30 48 N/A
8:20 am 08:20 Mostly Sunny 48 9 45 7 87 87 SW 5 7 29.94 1014 30 48 N/A
8:50 am 08:50 Mostly Sunny 52 11 45 7 77 77 WSW 3 6 29.94 1014 30 48 N/A
9:20 am 09:20 Partly Cloudy 52 11 45 7 77 77 VRB 5 7 29.97 1015 30 48 N/A
9:50 am 09:50 Partly Cloudy 54 12 45 7 72 72 WSW 7 11 29.97 1015 30 48 N/A
10:20 am 10:20 Partly Cloudy 52 11 43 6 72 72 SSW 8 13 29.97 1015 30 48 N/A
10:50 am 10:50 Partly Cloudy 54 12 45 7 72 72 SSW 7 11 29.97 1015 30 48 N/A
11:20 am 11:20 Partly Cloudy 55 13 43 6 63 63 SW 6 9 29.97 1015 30 48 N/A
11:50 am 11:50 Partly Cloudy 55 13 45 7 67 67 WSW 6 9 29.97 1015 30 48 N/A
12:20 pm 12:20 Partly Cloudy 57 14 43 6 59 59 SSW 9 15 29.97 1015 30 48 N/A
12:50 pm 12:50 Partly Cloudy 59 15 43 6 55 55 SW 8 13 29.94 1014 30 48 N/A
1:20 pm 13:20 Partly Cloudy 59 15 45 7 59 59 SW 7 11 29.94 1014 30 48 N/A
1:50 pm 13:50 Partly Cloudy 59 15 45 7 59 59 SW 9 15 29.94 1014 30 48 N/A
2:20 pm 14:20 Partly Cloudy 61 16 43 6 52 52 VRB 8 13 29.94 1014 30 48 N/A
2:50 pm 14:50 Partly Cloudy 57 14 41 5 55 55 SW 9 15 29.94 1014 30 48 N/A
3:20 pm 15:20 Partly Cloudy with Showers Nearby 61 16 45 7 55 55 WSW 7 11 29.94 1014 30 48 N/A
3:50 pm 15:50 Partly Cloudy with Showers Nearby 61 16 41 5 48 48 WSW 6 9 29.94 1014 30 48 N/A
4:20 pm 16:20 Partly Cloudy 61 16 41 5 48 48 VRB 7 11 29.94 1014 30 48 N/A
4:50 pm 16:50 Partly Cloudy 61 16 43 6 52 52 WSW 8 13 29.94 1014 30 48 N/A
5:20 pm 17:20 Partly Cloudy with Showers Nearby 63 17 39 4 42 42 WSW 8 13 29.94 1014 30 48 N/A
5:50 pm 17:50 Partly Cloudy with Light Showers 59 15 41 5 51 51 WSW 5 7 29.94 1014 30 48 N/A
6:20 pm 18:20 Partly Cloudy with Light Showers 52 11 45 7 77 77 W 6 9 29.97 1015 30 48 N/A
6:50 pm 18:50 Partly Cloudy with Showers Nearby 55 13 46 8 72 72 VRB 1 2 29.97 1015 30 48 N/A
7:20 pm 19:20 Mostly Sunny 55 13 48 9 77 77 VRB 1 2 29.97 1015 30 48 N/A
7:50 pm 19:50 Mostly Sunny 54 12 43 6 67 67 VRB 2 4 29.97 1015 30 48 N/A
8:20 pm 20:20 Partly Cloudy with Showers Nearby 54 12 43 6 67 67 SW 5 7 29.97 1015 30 48 N/A
8:50 pm 20:50 Partly Cloudy with Showers Nearby 54 12 43 6 67 67 SW 6 9 29.97 1015 30 48 N/A
9:20 pm 21:20 Mostly Clear 54 12 43 6 67 67 WSW 6 9 29.97 1015 30 48 N/A
9:50 pm 21:50 Mostly Clear 52 11 43 6 72 72 WSW 5 7 29.97 1015 7 11 N/A

Powered by AerisWeather